Location: Newark
(3.0500°N, 36.0167°E)
Time: 03:33:02
(UTC+00:00)

A-11 Canister half - Pass Details

Date: 03 September 2019
Orbit: 1527 x 1682 km, 47.3° (Epoch: 20 September)

Event Time Altitude Azimuth Distance (km) Brightness Sun altitude
Rises 02:04:36 0° 201° (SSW) 4,675 11.3 -22.0°
Reaches altitude 10° 02:08:02 10° 191° (SSW) 3,697 10.8 -21.2°
Maximum altitude 02:16:14 34° 129° (SE) 2,321 10.3 -19.2°
Drops below altitude 10° 02:24:32 10° 68° (ENE) 3,765 12.3 -17.1°
Sets 02:28:01 0° 59° (ENE) 4,771 12.9 -16.3°
